[[{"header":{"parameterUnit":"m.s-1","parameterCategory":1,"la1":30.2992,"la2":30.254,"lo1":-89.0895,"lo2":-89.0443,"dy":0.0025,"dx":0.0025,"nx":19,"ny":19,"refTime":"2026-03-14T03:00:00:Z","depth":0,"parameterNumber":2,"parameterNumberName":"U-component_of_WINDS"},"data":[0,0,0,-0.2424,-0.2424,-0.2399,-0.2399,-0.237,-0.237,0,0,0,0,0,0,0,0,0,0,0,-0.2433,-0.2432,-0.2425,-0.2424,-0.2399,-0.2399,-0.237,-0.237,0,0,0,0,0,0,0,0,0,0,0,-0.2433,-0.2433,-0.2432,-0.2424,-0.2399,-0.2399,-0.237,-0.2388,0,0,0,0,0,0,0,0,0,0,-0.2412,-0.242,-0.2433,-0.2432,-0.2424,-0.2399,-0.2399,-0.2389,-0.2387,-0.2383,0,-0.2378,0,-0.2374,-0.2368,-0.2368,0,0,0,-0.2423,-0.2422,-0.2414,-0.2432,-0.2423,-0.2399,-0.241,-0.2388,-0.2386,-0.238,-0.2378,-0.2377,-0.2373,-0.2368,-0.2368,-0.2344,-0.2344,0,0,-0.2425,-0.2429,-0.2416,-0.2413,-0.2416,-0.2411,-0.2409,-0.2387,-0.2384,-0.2378,-0.2376,-0.2373,-0.2368,-0.2368,-0.2344,-0.2344,0,0,0,-0.2429,-0.243,-0.2423,-0.2414,-0.2409,-0.241,-0.2409,-0.2385,-0.2383,-0.2375,-0.2372,-0.2368,-0.2367,-0.2344,-0.2344,-0.2344,0,0,0,-0.243,-0.2432,-0.2423,-0.2426,-0.241,-0.2397,-0.2408,-0.2384,-0.2382,-0.2373,-0.2368,-0.2367,-0.2344,-0.2344,-0.2344,-0.2343,0,0,0,-0.2434,-0.2433,-0.2429,-0.2426,-0.2415,-0.2397,-0.2393,-0.2384,-0.238,-0.2368,-0.2367,-0.2344,-0.2344,-0.2344,-0.2343,-0.2338,0,0,0,-0.244,-0.2429,-0.2429,-0.2417,-0.2416,-0.2398,-0.2393,-0.238,-0.237,-0.2368,-0.2344,-0.2344,-0.2344,-0.2343,-0.2339,-0.2335,-0.2334,0,0,-0.2429,-0.2428,-0.242,-0.242,-0.2403,-0.2401,-0.2384,-0.2371,-0.2366,-0.2352,-0.2351,-0.2344,-0.2343,-0.2338,-0.2326,-0.2325,0,0,0,-0.2418,-0.2413,-0.2408,-0.2398,-0.2389,-0.238,-0.2369,-0.2365,-0.2353,-0.2359,-0.2341,-0.234,-0.2337,-0.2335,-0.2334,-0.2332,-0.2343,-0.2343,-0.2343,-0.2408,-0.2403,-0.2391,-0.2383,-0.2375,-0.2365,-0.2358,-0.235,-0.2346,-0.2343,-0.2338,-0.2331,-0.2329,-0.2328,-0.2326,-0.2336,-0.2336,-0.2336,-0.2336,-0.2392,-0.2384,-0.2382,-0.2369,-0.2364,-0.2353,-0.2344,-0.2342,-0.2332,-0.2334,-0.2331,-0.2333,-0.2328,-0.2325,-0.2336,-0.2336,-0.2336,-0.2336,-0.2336,-0.2385,-0.238,-0.2376,-0.2363,-0.2354,-0.2348,-0.2339,-0.2334,-0.233,-0.2328,-0.2323,-0.2323,-0.2323,-0.2326,-0.2326,-0.2326,-0.2326,-0.2326,-0.2326,-0.2379,-0.2374,-0.2367,-0.2357,-0.2351,-0.2344,-0.2335,-0.233,-0.2323,-0.2321,-0.2321,-0.2319,-0.2328,-0.2331,-0.2325,-0.2326,-0.2326,-0.2326,-0.2326,-0.2365,-0.2368,-0.2356,-0.2351,-0.234,-0.2333,-0.2328,-0.2318,-0.2313,-0.2309,-0.2308,-0.2316,-0.2315,-0.2315,-0.2317,-0.2309,-0.2309,-0.2309,-0.2309,-0.2359,-0.2358,-0.2346,-0.2339,-0.2331,-0.2326,-0.2315,-0.2309,-0.2302,-0.23,-0.23,-0.2303,-0.2304,-0.2302,-0.2303,-0.2305,-0.2293,-0.2293,-0.2293,-0.235,-0.2349,-0.2339,-0.2334,-0.2325,-0.2319,-0.2308,-0.23,-0.2294,-0.2293,-0.2297,-0.2298,-0.2302,-0.2303,-0.2301,-0.2303,-0.2306,0,0]},{"header":{"parameterUnit":"m.s-1","parameterCategory":1,"la1":30.2992,"la2":30.254,"lo1":-89.0895,"lo2":-89.0443,"dy":0.0025,"dx":0.0025,"nx":19,"ny":19,"refTime":"2026-03-14T03:00:00:Z","depth":0,"parameterNumber":3,"parameterNumberName":"V-component_of_WINDS"},"data":[0,0,0,1.7538,1.7536,1.7441,1.7441,1.7323,1.7322,0,0,0,0,0,0,0,0,0,0,0,1.7571,1.7571,1.7538,1.7536,1.7442,1.7441,1.7323,1.7322,0,0,0,0,0,0,0,0,0,0,0,1.7572,1.7571,1.757,1.7536,1.7442,1.7441,1.7324,1.7393,0,0,0,0,0,0,0,0,0,0,1.7484,1.7521,1.7571,1.757,1.7535,1.7442,1.7441,1.7396,1.7389,1.7369,0,1.7355,0,1.7337,1.7315,1.7314,0,0,0,1.7531,1.7527,1.7497,1.757,1.7535,1.7442,1.7483,1.7392,1.7384,1.7359,1.7353,1.7348,1.7335,1.7314,1.7314,1.722,1.7219,0,0,1.7537,1.7556,1.7503,1.7492,1.751,1.7486,1.748,1.7387,1.7381,1.7353,1.7346,1.7333,1.7313,1.7313,1.722,1.722,0,0,0,1.7555,1.756,1.7532,1.7497,1.748,1.7483,1.7476,1.7385,1.7374,1.7344,1.7332,1.7313,1.7311,1.722,1.722,1.7229,0,0,0,1.7558,1.7571,1.7535,1.7546,1.7482,1.7432,1.7477,1.7381,1.737,1.7332,1.7313,1.731,1.722,1.722,1.7229,1.723,0,0,0,1.7576,1.7573,1.7561,1.7547,1.7508,1.7433,1.7417,1.7378,1.7362,1.7314,1.731,1.722,1.722,1.723,1.723,1.7211,0,0,0,1.76,1.7569,1.7562,1.7523,1.7509,1.7441,1.7417,1.7365,1.7325,1.7312,1.722,1.722,1.723,1.723,1.7212,1.7199,1.7196,0,0,1.7572,1.7567,1.7542,1.7532,1.7472,1.7453,1.7392,1.7335,1.7311,1.7251,1.7248,1.7229,1.723,1.7211,1.7171,1.7169,0,0,0,1.754,1.7522,1.7502,1.7467,1.7425,1.7388,1.7339,1.7318,1.7266,1.7285,1.7217,1.7216,1.7205,1.7197,1.7195,1.7184,1.7218,1.7218,1.7218,1.7528,1.7502,1.7459,1.7421,1.7386,1.7337,1.7306,1.7268,1.7249,1.7233,1.7215,1.7195,1.7187,1.7185,1.7173,1.7206,1.7206,1.7206,1.7206,1.7485,1.7456,1.7434,1.7385,1.7355,1.7312,1.7263,1.7251,1.7205,1.7206,1.7194,1.7197,1.7184,1.7172,1.7207,1.7207,1.7207,1.7207,1.7207,1.7474,1.7456,1.7433,1.7379,1.734,1.7301,1.7259,1.7233,1.7208,1.7196,1.7174,1.7173,1.717,1.7187,1.7187,1.7187,1.7187,1.7187,1.7187,1.7473,1.7446,1.7415,1.7369,1.7343,1.7305,1.7255,1.7227,1.719,1.7174,1.7174,1.7156,1.7188,1.7197,1.7186,1.7186,1.7186,1.7186,1.7186,1.7438,1.7442,1.7395,1.7369,1.7312,1.7274,1.7243,1.7189,1.7162,1.7142,1.7127,1.7155,1.7147,1.7148,1.7155,1.7134,1.7134,1.7134,1.7134,1.7429,1.7423,1.7369,1.733,1.7287,1.7254,1.7199,1.7159,1.7118,1.7099,1.7099,1.7106,1.7108,1.7098,1.71,1.7106,1.7073,1.7073,1.7073,1.7407,1.7396,1.7355,1.7318,1.7271,1.7231,1.7178,1.7131,1.7085,1.707,1.7084,1.7086,1.7097,1.7102,1.7088,1.7092,1.7103,0,0]}]]